Powrót do katalogu

PIESAT-2 11

AktywnyNaukaSSO
NORAD 62335·PAYLOAD·🇨🇳 China

Wystrzelony Dec 16, 2024 z Taiyuan Satellite Launch Center

Loading…

Następne Przeloty (najbliższe 24 godziny)

TLE

ŚwieżeSource: Space-Track

Epoka: Sep 14, 2026, 23:14 UTC

1 62335U 24241C   26257.96809053  .00006591  00000-0  35480-3 0  9998
2 62335  97.5347 204.6103 0002299  64.8043 295.3427 15.15167120 96409

Śledź PIESAT-2 11 w czasie rzeczywistym z AllMySat

Download on the App Store